BEIDOU IGSO-7 (43539 NORAD) Tracking and Keplerian Element Data

This shows tracking and keplerian element data for the satellite.

Feedback or suggestion? Click here.




ElementValue
Catalog43539
NameBEIDOU IGSO-7
Epoch Orbit382
Epoch Day198.88605475
Epoch Year2019
RAAN185.3297
Inclination55.0396
Eccentricity0.0023709
Argument of Perigee202.7519
Mean Anonmoly339.5307
Mean Motion1.00268629
Decay Rate-1.02E-06
L11 43539U 18057A 19198.88605475 -.00000102 00000-0 00000+0 0 9999
L22 43539 55.0396 185.3297 0023709 202.7519 339.5307 1.00268629 3823

Live tracking and technical data element details for BEIDOU IGSO-7 (NORAD 43539). BEIDOU IGSO-7 can be tracked NOW for your location showing map with azimuth and elevation plus other details from your city location.

Track the satellite on the map from your city or location and see movement details for azimuth, elevation, latitude, longitude, range, height, and movement on the map or in text.







IsCatalogInMostPopularTable: catalog: 43539, numindb: 193
Update: records affected: 1



GetName: 43539 BEIDOU IGSO-7

Hit Count: updated at: Fri, 19 Jul 2019 23:21:14 GMT